Flag for France Weather past 2 weeks in Orléans, France

Now
63 °F

Clear.


Feels Like: 63 °F
Forecast: 47 / 60 °F
Wind: 6 mph from Southwest

Location: Orleans Airport

Current Time: Oct 20, 2014 at 1:22:46 PM

Latest Report: Oct 20, 2014 at 1:00 PM


Visibility: N/A

Pressure: 30.15 "Hg

Humidity: 83%

Dew point: 57 °F

Location of OrléansLocation

Historic Weather in Orléans — Graph

°F

Orléans temperature yesterday

Maximum temperature yesterday: 75 °F (at 4:00 PM)
Minimum temperature yesterday: 57 °F (at 5:00 AM)
Average temperature yesterday: 64 °F

Past Weeks' High & Low Weather Summary

 TemperatureHumidityPressure
High77 °F (Oct 18, 4:30 PM)100% (Oct 6, 8:30 AM)30.18 "Hg (Oct 6, 8:30 AM)
Low45 °F (Oct 14, 7:30 AM)49% (Oct 14, 4:30 PM)29.56 "Hg (Oct 8, 5:30 PM)
Average58 °F85%29.84 "Hg
* Reported Oct 5 12:00 Noon — Oct 20 12:00 Noon, Orléans, Weather by CustomWeather, © 2014

Note: Actual official high and low records may vary slightly from our data, if they occured in-between our weather recording intervals... More about our weather records

Advertising

Orléans weather history for previous 24 hours

 ConditionsComfort  
Time TempWeatherWind HumidityBarometerVisibility
12:00 PM
Oct 20
61 °FClear.3 mph88%30.15 "HgN/A
11:30 AM61 °FClear.3 mph88%30.15 "HgN/A
11:00 AM59 °FPartly sunny.3 mph94%30.15 "HgN/A
10:30 AM57 °FClear.2 mph94%30.15 "HgN/A
10:00 AM57 °FClear.No wind94%30.15 "HgN/A
9:30 AM55 °FClear.No wind94%30.15 "HgN/A
9:00 AM54 °FClear.No wind94%30.15 "HgN/A
8:30 AM55 °FClear.3 mph94%30.15 "HgN/A
8:00 AM54 °FClear.3 mph100%30.15 "HgN/A
7:30 AM54 °FClear.1 mph100%30.15 "HgN/A
7:00 AM54 °FClear.5 mph94%30.15 "HgN/A
5:00 AM55 °FClear.5 mph94%30.15 "HgN/A
4:30 AM55 °FClear.5 mph100%30.15 "HgN/A
4:00 AM55 °FClear.6 mph94%30.15 "HgN/A
3:30 AM57 °FClear.5 mph94%30.15 "HgN/A
3:00 AM59 °FClear.6 mph88%30.15 "HgN/A
2:30 AM59 °FClear.6 mph94%30.15 "HgN/A
2:00 AM59 °FClear.6 mph94%30.15 "HgN/A
1:30 AM61 °FClear.5 mph88%30.15 "HgN/A
1:00 AM61 °FClear.6 mph88%30.15 "HgN/A
12:30 AM61 °FClear.6 mph88%30.18 "HgN/A
12:00 AM61 °FPassing clouds.5 mph88%30.15 "HgN/A
11:30 PM
Oct 19
61 °FPassing clouds.5 mph94%30.15 "HgN/A
11:00 PM61 °FPassing clouds.5 mph88%30.15 "HgN/A
10:30 PM61 °FClear.7 mph88%30.15 "HgN/A
10:00 PM64 °FClear.8 mph83%30.15 "HgN/A
9:30 PM64 °FClear.7 mph83%30.12 "HgN/A
9:00 PM64 °FClear.8 mph83%30.12 "HgN/A
8:30 PM64 °FClear.7 mph83%30.12 "HgN/A
8:00 PM66 °FClear.7 mph78%30.12 "HgN/A
7:30 PM66 °FClear.7 mph83%30.12 "HgN/A
7:00 PM68 °FClear.7 mph73%30.09 "HgN/A
6:30 PM72 °FClear.9 mph69%30.09 "HgN/A
6:00 PM73 °FClear.12 mph61%30.09 "HgN/A
5:30 PM73 °FClear.13 mph61%30.09 "HgN/A
5:00 PM73 °FClear.15 mph61%30.09 "HgN/A
4:30 PM75 °FClear.16 mph57%30.09 "HgN/A
4:00 PM75 °FClear.14 mph61%30.12 "HgN/A
3:30 PM73 °FClear.14 mph65%30.12 "HgN/A
3:00 PM73 °FClear.13 mph65%30.12 "HgN/A
2:30 PM73 °FClear.12 mph69%30.12 "HgN/A
2:00 PM72 °FClear.13 mph73%30.12 "HgN/A
1:30 PM72 °FClear.12 mph73%30.12 "HgN/A
1:00 PM70 °FClear.13 mph73%30.12 "HgN/A
Weather by CustomWeather, © 2014

See weather overviewHow to use our weather pages